Burnet, TX

2:52 AM CST on February 08, 2016 (GMT -0600)
Burnet Municipal-Craddock

Weather History for KBMQ - February, 2013

Change the Weather History Date:

Sunday, February 24, 2013

  Actual Average Record
Temperature  
Mean Temperature 57 °F -  
Max Temperature 71 °F 60 °F 82 °F (2009)
Min Temperature 43 °F 41 °F 23 °F (2003)
Degree Days  
Heating Degree Days 8    
Growing Degree Days 7 (Base 50)    
Moisture  
Dew Point 44 °F    
Average Humidity 60    
Maximum Humidity 87    
Minimum Humidity 38    
Precipitation  
Precipitation 0.00 in - - ()
Sea Level Pressure  
Sea Level Pressure 29.76 in    
Wind  
Wind Speed 8 mph (SE)    
Max Wind Speed 16 mph    
Max Gust Speed 26 mph    
Visibility 10 miles    
Events      
Averages and records for this station are not official NWS values.
T = Trace of Precipitation, MM = Missing Value Source: NWS Daily Summary

Daily Weather History Graph

Daily Weather History Graph

Search for Another Location

Airport or City:

Trip Planner

Search our weather history database for the weather conditions in past years. The results will help you decide how hot, cold, wet, or windy it might be!

Date:

Astronomy

Feb. 24, 2013 Rise Set
Actual Time 7:04 AM CST 6:28 PM CST
Civil Twilight 6:40 AM CST 6:52 PM CST
Nautical Twilight 6:12 AM CST 7:20 PM CST
Astronomical Twilight 5:44 AM CST 7:48 PM CST
Moon 5:40 PM CST (2/24) 6:01 AM CST (2/24)
Length of Visible Light 12h 12m
Length of Day
11h 23m
Waxing Gibbous, 99% of the Moon is Illuminated
Feb 24
Waxing Gibbous
Feb 25
Full
Mar 4
Last Quarter
Mar 11
New
Mar 19
First Quarter

Hourly Weather History & Observations

Time (CST) Temp. Windchill Dew Point Humidity Pressure Visibility Wind Dir Wind Speed Gust Speed Precip Events Conditions
12:53 AM 46.9 °F - 32.0 °F 56% 29.91 in 10.0 mi ESE 3.5 mph - N/A   Clear
1:53 AM 46.0 °F 44.8 °F 32.0 °F 58% 29.89 in 10.0 mi East 3.5 mph - N/A   Clear
2:53 AM 46.9 °F - 34.0 °F 61% 29.88 in 10.0 mi SE 6.9 mph - N/A   Clear
3:53 AM 46.0 °F 44.8 °F 34.0 °F 63% 29.86 in 10.0 mi SSE 3.5 mph - N/A   Clear
4:53 AM 43.0 °F - 33.1 °F 68% 29.87 in 10.0 mi Calm Calm - N/A   Clear
6:53 AM 44.1 °F - 35.1 °F 71% 29.88 in 10.0 mi Calm Calm - N/A   Clear
7:53 AM 46.9 °F - 36.0 °F 66% 29.88 in 10.0 mi East 3.5 mph - N/A   Clear
8:53 AM 54.0 °F - 43.0 °F 66% 29.88 in 10.0 mi SSE 9.2 mph - N/A   Clear
9:53 AM 57.9 °F - 43.0 °F 58% 29.86 in 10.0 mi SSE 13.8 mph 23.0 mph N/A   Clear
10:53 AM 62.1 °F - 42.1 °F 48% 29.86 in 10.0 mi SSE 11.5 mph 21.9 mph N/A   Clear
11:53 AM 64.9 °F - 42.1 °F 43% 29.83 in 10.0 mi South 13.8 mph 21.9 mph N/A   Clear
12:53 PM 68.0 °F - 42.1 °F 39% 29.78 in 10.0 mi SSE 16.1 mph 25.3 mph N/A   Clear
1:53 PM 70.0 °F - 43.0 °F 38% 29.74 in 10.0 mi South 16.1 mph 25.3 mph N/A   Clear
2:53 PM 71.1 °F - 46.0 °F 41% 29.70 in 10.0 mi South 11.5 mph 26.5 mph N/A   Clear
3:53 PM 71.1 °F - 45.0 °F 39% 29.68 in 10.0 mi SSE 12.7 mph 20.7 mph N/A   Mostly Cloudy
4:53 PM 69.1 °F - 46.0 °F 44% 29.68 in 10.0 mi SSE 12.7 mph 20.7 mph N/A   Mostly Cloudy
5:53 PM 68.0 °F - 48.0 °F 49% 29.68 in 10.0 mi SSE 13.8 mph 19.6 mph N/A   Mostly Cloudy
6:53 PM 66.0 °F - 51.1 °F 59% 29.68 in 10.0 mi SSE 11.5 mph 18.4 mph N/A   Overcast
7:53 PM 64.9 °F - 52.0 °F 63% 29.66 in 10.0 mi SSE 10.4 mph 18.4 mph N/A   Overcast
8:53 PM 63.0 °F - 53.1 °F 70% 29.67 in 10.0 mi SSE 8.1 mph - N/A   Overcast
9:36 PM 63.0 °F - 54.0 °F 72% 29.67 in 10.0 mi SE 9.2 mph - N/A   Overcast
9:53 PM 62.1 °F - 54.0 °F 75% 29.63 in 10.0 mi SE 11.5 mph - N/A   Overcast
10:53 PM 62.1 °F - 55.9 °F 80% 29.59 in 9.0 mi SE 12.7 mph 24.2 mph N/A   Overcast
11:32 PM 62.1 °F - 55.9 °F 80% 29.59 in 8.0 mi SSE 13.8 mph 24.2 mph N/A   Overcast
11:53 PM 61.0 °F - 57.0 °F 87% 29.56 in 7.0 mi SSE 11.5 mph 23.0 mph N/A   Overcast